Location: Winnipeg
(49.8830°N, 97.1670°W)
Time: 01:35:58
(UTC-06:00)

ISS - Visible Passes

Search period start: 28 November 2022 00:00
Search period end: 08 December 2022 00:00
Orbit: 411 x 420 km, 51.6° (Epoch: 28 November)

Date Brightness Start Highest point End Pass type
(mag) Time Alt. Az. Time Alt. Az. Time Alt. Az.
28 Nov -3.6 17:48:51 10° W 17:52:09 61° N 17:54:02 23° ENE visible
28 Nov -1.2 19:25:40 10° WNW 19:26:55 21° WNW 19:26:55 21° WNW visible
29 Nov -3.9 18:36:58 10° WNW 18:40:13 78° NNW 18:40:13 78° NNW visible
30 Nov -3.8 17:48:13 10° WNW 17:51:34 68° N 17:53:32 22° E visible
30 Nov -1.2 19:25:01 10° WNW 19:26:25 22° W 19:26:25 22° W visible
01 Dec -3.6 18:36:14 10° WNW 18:39:33 65° SSW 18:39:48 62° S visible
02 Dec -3.8 17:47:26 10° WNW 17:50:47 87° SSW 17:53:16 17° ESE visible
02 Dec -1.2 19:24:29 10° W 19:26:10 20° WSW 19:26:10 20° WSW visible
03 Dec -2.3 18:35:29 10° W 18:38:32 34° SSW 18:39:45 25° S visible
04 Dec -2.9 17:46:33 10° WNW 17:49:48 49° SSW 17:53:01 10° SE visible
04 Dec -0.6 19:24:55 10° WSW 19:25:53 11° SW 19:26:27 11° SW visible
05 Dec -0.9 18:35:01 10° W 18:37:15 17° SW 18:39:29 10° S visible
06 Dec -1.5 17:45:45 10° W 17:48:33 25° SW 17:51:20 10° SSE visible
